KB1DML-4 Weather Reports


time (UTC)temp
C
wind
direction
speed
KPH
gust
KPH
rain 1hr
cm
rain 24hr
cm
rain mn
cm
humidity
%
barometer
mb
20260505003518 18 158 6.4 11.3 0.00 0.00 0.00 45 1003.5
20260505003038 18 158 4.8 12.9 0.00 0.00 0.00 44 1003.5
20260505002524 19 158 8.0 12.9 0.00 0.00 0.00 42 1003.0
20260505002016 19 158 3.2 8.0 0.00 0.00 0.00 39 1003.0
20260505001524 20 0.0 3.2 0.00 0.00 0.00 39 1003.0
20260505001015 20 203 1.6 3.2 0.00 0.00 0.00 39 1002.6
20260505000516 20 0.0 3.2 0.00 0.00 0.00 39 1002.6
20260505000038 20 225 1.6 3.2 0.00 0.00 0.00 38 1002.6
20260504235518 20 203 1.6 3.2 0.00 0.00 0.00 38 1002.5
20260504235018 20 203 1.6 3.2 0.00 0.00 0.00 37 1002.5
20260504234537 20 203 1.6 3.2 0.00 0.00 0.00 37 1002.5
20260504234024 20 203 1.6 3.2 0.00 0.00 0.00 37 1002.2
20260504233544 20 225 1.6 3.2 0.00 0.00 0.00 37 1002.2
20260504233016 20 225 1.6 4.8 0.00 0.00 0.00 36 1002.2
20260504232515 21 203 1.6 4.8 0.00 0.00 0.00 36 1002.0
20260504232017 21 203 1.6 6.4 0.00 0.00 0.00 36 1002.0
20260504231556 21 225 1.6 4.8 0.00 0.00 0.00 36 1002.0
20260504231018 21 203 1.6 6.4 0.00 0.00 0.00 36 1001.9
20260504230524 21 248 1.6 3.2 0.00 0.00 0.00 35 1001.9
20260504230017 21 225 1.6 4.8 0.00 0.00 0.00 35 1001.9
20260504225517 21 225 1.6 4.8 0.00 0.00 0.00 35 1001.7
20260504225023 21 225 1.6 6.4 0.00 0.00 0.00 35 1001.7
20260504224516 21 225 3.2 8.0 0.00 0.00 0.00 34 1001.7
20260504224024 21 203 3.2 12.9 0.00 0.00 0.00 35 1001.5
20260504223524 21 225 3.2 8.0 0.00 0.00 0.00 33 1001.5
20260504223015 21 203 3.2 8.0 0.00 0.00 0.00 34 1001.5
20260504222536 21 225 3.2 8.0 0.00 0.00 0.00 34 1001.5
20260504222016 21 0.0 3.2 0.00 0.00 0.00 35 1001.5
20260504221515 21 270 1.6 6.4 0.00 0.00 0.00 33 1001.5
20260504221017 21 270 3.2 6.4 0.00 0.00 0.00 34 1001.6
20260504220517 21 225 1.6 8.0 0.00 0.00 0.00 35 1001.5
20260504220044 21 203 4.8 8.0 0.00 0.00 0.00 33 1001.5
20260504215523 21 225 1.6 4.8 0.00 0.00 0.00 34 1001.5
20260504215023 21 248 3.2 8.0 0.00 0.00 0.00 34 1001.5
20260504214517 21 203 4.8 9.7 0.00 0.00 0.00 33 1001.5
20260504214037 21 203 3.2 8.0 0.00 0.00 0.00 34 1001.5
20260504213524 21 315 4.8 14.5 0.00 0.00 0.00 36 1001.5
20260504213015 21 270 3.2 6.4 0.00 0.00 0.00 34 1001.5
20260504212516 21 248 3.2 6.4 0.00 0.00 0.00 33 1001.5
20260504212017 21 315 8.0 30.6 0.00 0.00 0.00 34 1001.5
20260504211524 22 270 3.2 6.4 0.00 0.00 0.00 34 1001.5
20260504211024 21 270 1.6 4.8 0.00 0.00 0.00 35 1001.5
20260504210516 21 270 4.8 11.3 0.00 0.00 0.00 33 1001.5
20260504210024 21 270 4.8 11.3 0.00 0.00 0.00 33 1001.5
20260504205537 21 225 3.2 6.4 0.00 0.00 0.00 34 1001.5
20260504205015 21 315 4.8 17.7 0.00 0.00 0.00 35 1001.5
20260504204518 21 270 3.2 8.0 0.00 0.00 0.00 34 1001.5
20260504204015 21 315 8.0 25.7 0.00 0.00 0.00 34 1001.5
20260504203516 22 293 8.0 27.4 0.00 0.00 0.00 32 1001.5
20260504203017 22 225 4.8 11.3 0.00 0.00 0.00 31 1001.5
20260504202517 22 203 4.8 8.0 0.00 0.00 0.00 31 1001.5
20260504202023 22 225 4.8 8.0 0.00 0.00 0.00 32 1001.5
20260504201517 22 248 3.2 8.0 0.00 0.00 0.00 33 1001.5
20260504201017 21 248 3.2 8.0 0.00 0.00 0.00 32 1001.5
20260504200517 21 225 3.2 6.4 0.00 0.00 0.00 32 1001.5
20260504200043 21 203 3.2 6.4 0.00 0.00 0.00 32 1001.5
20260504195524 21 225 4.8 11.3 0.00 0.00 0.00 31 1001.6
20260504195017 21 203 4.8 14.5 0.00 0.00 0.00 31 1001.6
20260504194516 21 225 4.8 9.7 0.00 0.00 0.00 31 1001.6
20260504194015 21 225 6.4 17.7 0.00 0.00 0.00 32 1001.7
20260504193537 21 248 3.2 9.7 0.00 0.00 0.00 33 1001.7
20260504193017 21 270 3.2 9.7 0.00 0.00 0.00 33 1001.7
20260504192517 21 248 3.2 14.5 0.00 0.00 0.00 31 1001.9
20260504192023 21 270 3.2 12.9 0.00 0.00 0.00 32 1001.9
20260504191544 21 270 4.8 19.3 0.00 0.00 0.00 31 1001.9
20260504191015 21 248 6.4 14.5 0.00 0.00 0.00 31 1002.0
20260504190517 21 248 4.8 11.3 0.00 0.00 0.00 31 1002.0
20260504190023 21 315 8.0 24.1 0.00 0.00 0.00 33 1002.0
20260504185515 21 203 6.4 16.1 0.00 0.00 0.00 32 1002.0
20260504185015 21 203 6.4 11.3 0.00 0.00 0.00 31 1002.0
20260504184603 21 225 6.4 11.3 0.00 0.00 0.00 32 1002.0
20260504184015 21 225 4.8 11.3 0.00 0.00 0.00 32 1002.1
20260504183517 21 270 6.4 16.1 0.00 0.00 0.00 32 1002.1
20260504183017 21 248 4.8 14.5 0.00 0.00 0.00 32 1002.1
20260504182517 21 225 6.4 12.9 0.00 0.00 0.00 31 1002.0
20260504182017 21 270 4.8 12.9 0.00 0.00 0.00 34 1002.0
20260504181537 21 225 6.4 17.7 0.00 0.00 0.00 32 1002.0
20260504181017 21 270 3.2 11.3 0.00 0.00 0.00 32 1002.4
20260504180537 20 203 4.8 8.0 0.00 0.00 0.00 33 1002.4
20260504180015 20 270 4.8 11.3 0.00 0.00 0.00 32 1002.4
20260504175515 20 203 8.0 19.3 0.00 0.00 0.00 32 1002.2
20260504175017 20 225 6.4 12.9 0.00 0.00 0.00 33 1002.2
20260504174523 20 225 4.8 8.0 0.00 0.00 0.00 35 1002.2
20260504174017 20 225 6.4 14.5 0.00 0.00 0.00 33 1002.4
20260504173523 20 248 6.4 14.5 0.00 0.00 0.00 32 1002.4
20260504173037 20 203 6.4 16.1 0.00 0.00 0.00 33 1002.4
20260504172517 20 225 6.4 14.5 0.00 0.00 0.00 33 1002.5
20260504172015 20 203 6.4 12.9 0.00 0.00 0.00 33 1002.5
20260504171523 19 248 6.4 12.9 0.00 0.00 0.00 35 1002.5
20260504171023 19 225 6.4 12.9 0.00 0.00 0.00 34 1002.7
20260504170535 19 270 8.0 16.1 0.00 0.00 0.00 33 1002.7
20260504151019 17 203 6.4 16.1 0.00 0.00 0.00 39 1003.8
20260504150605 17 203 6.4 11.3 0.00 0.00 0.00 39 1003.8
20260504141025 16 203 1.6 4.8 0.00 0.00 0.00 42 1004.6
20260504140525 16 248 3.2 8.0 0.00 0.00 0.00 43 1004.6
20260504130525 14 225 4.8 11.3 0.00 0.00 0.00 47 1005.4
20260504110517 8 0.0 1.6 0.00 0.00 0.00 65 1006.1
20260504100525 7 158 1.6 3.2 0.00 0.00 0.00 69 1006.1
20260504081518 6 0.0 1.6 0.00 0.00 0.00 74 1005.9
20260504081024 6 0.0 1.6 0.00 0.00 0.00 74 1006.0
20260504080518 6 0.0 1.6 0.00 0.00 0.00 74 1006.0
20260504050518 3 0.0 0.0 0.00 0.00 0.00 78 1005.8
20260504050024 3 0.0 0.0 0.00 0.00 0.00 76 1005.8
20260504045516 3 0.0 0.0 0.00 0.00 0.00 76 1005.9
20260504045044 3 0.0 0.0 0.00 0.00 0.00 78 1005.9
20260504044518 3 0.0 0.0 0.00 0.00 0.00 78 1005.9
20260504044018 3 0.0 0.0 0.00 0.00 0.00 77 1005.8
20260504043516 3 0.0 0.0 0.00 0.00 0.00 75 1005.8
20260504043016 3 0.0 0.0 0.00 0.00 0.00 72 1005.8
20260504042536 3 0.0 0.0 0.00 0.00 0.00 72 1005.7
20260504042036 3 0.0 0.0 0.00 0.00 0.00 72 1005.7
20260504041516 3 0.0 0.0 0.00 0.00 0.00 74 1005.7
20260504041016 3 0.0 0.0 0.00 0.00 0.00 75 1005.6
20260504040516 3 0.0 0.0 0.00 0.00 0.00 72 1005.6
20260504040016 4 0.0 0.0 0.00 0.00 0.00 72 1005.6
20260504035518 4 0.0 0.0 0.00 0.00 0.00 73 1005.5
20260504035017 4 0.0 0.0 0.00 0.00 0.00 74 1005.5
20260504034517 4 0.0 0.0 0.00 0.00 0.00 74 1005.5
20260504034018 4 0.0 0.0 0.00 0.00 0.00 71 1005.5
20260504033519 4 0.0 0.0 0.00 0.00 0.00 71 1005.5
20260504033037 4 0.0 0.0 0.00 0.00 0.00 71 1005.5
20260504032525 4 0.0 0.0 0.00 0.00 0.00 72 1005.5
20260504032025 4 0.0 0.0 0.00 0.00 0.00 73 1005.5
20260504031525 4 0.0 0.0 0.00 0.00 0.00 73 1005.5
20260504031025 4 0.0 0.0 0.00 0.00 0.00 75 1005.4
20260504030524 4 0.0 0.0 0.00 0.00 0.00 76 1005.4
20260504030025 5 0.0 0.0 0.00 0.00 0.00 76 1005.4
20260504025516 5 0.0 0.0 0.00 0.00 0.00 77 1005.4
20260504025016 5 0.0 0.0 0.00 0.00 0.00 75 1005.4
20260504024538 5 0.0 0.0 0.00 0.00 0.00 76 1005.4
20260504024016 5 0.0 0.0 0.00 0.00 0.00 75 1005.4
20260504023605 5 0.0 0.0 0.00 0.00 0.00 74 1005.4
20260504023024 5 0.0 0.0 0.00 0.00 0.00 74 1005.4
20260504022524 5 0.0 0.0 0.00 0.00 0.00 75 1005.1
20260504022025 5 0.0 0.0 0.00 0.00 0.00 74 1005.1
20260504021545 5 0.0 0.0 0.00 0.00 0.00 71 1005.1
20260504021018 5 0.0 0.0 0.00 0.00 0.00 70 1005.1
20260504020536 5 0.0 0.0 0.00 0.00 0.00 68 1005.0
20260504020016 5 0.0 0.0 0.00 0.00 0.00 67 1005.0
20260504015516 6 0.0 0.0 0.00 0.00 0.00 67 1005.0
20260504015016 6 0.0 0.0 0.00 0.00 0.00 67 1005.0
20260504014545 6 0.0 0.0 0.00 0.00 0.00 66 1005.0
20260504014018 6 0.0 0.0 0.00 0.00 0.00 64 1004.9
20260504013525 6 0.0 0.0 0.00 0.00 0.00 65 1004.9
20260504013025 6 0.0 0.0 0.00 0.00 0.00 66 1004.9
20260504012518 7 0.0 0.0 0.00 0.00 0.00 65 1004.8
20260504012045 7 0.0 0.0 0.00 0.00 0.00 63 1004.8
20260504011517 7 0.0 0.0 0.00 0.00 0.00 62 1004.8
20260504011016 8 0.0 0.0 0.00 0.00 0.00 61 1004.5
20260504010516 8 0.0 0.0 0.00 0.00 0.00 60 1004.5
20260504010018 8 0.0 0.0 0.00 0.00 0.00 56 1004.5
20260504005538 8 0.0 0.0 0.00 0.00 0.00 54 1004.5
20260504005024 8 0.0 0.0 0.00 0.00 0.00 54 1004.5
20260504004518 8 0.0 0.0 0.00 0.00 0.00 55 1004.5
20260504004016 8 0.0 0.0 0.00 0.00 0.00 52 1004.2